�������l�o���
Date,Time,MP-1(��Sv/h),MP-2(��Sv/h),MP-3(��Sv/h),MP-4(��Sv/h),MP-5(��Sv/h),MP-6(��Sv/h),MP-7(��Sv/h),MP-8(��Sv/h),����,����(m/s),���J
2021/05/21,00:00,0.614,0.896,0.574,1.103,0.778,0.367,0.636,0.596,�쓌,4.6,�L
2021/05/21,00:10,0.615,0.896,0.573,1.100,0.779,0.369,0.637,0.595,��쓌,2.5,�L
2021/05/21,00:20,0.613,0.895,0.573,1.104,0.778,0.366,0.636,0.595,��쓌,3.1,�L
2021/05/21,00:30,0.615,0.896,0.573,1.100,0.778,0.367,0.637,0.596,�쓌,3.4,�L
2021/05/21,00:40,0.614,0.894,0.574,1.100,0.779,0.367,0.636,0.596,�쓌,4.2,�L
2021/05/21,00:50,0.616,0.896,0.573,1.102,0.779,0.366,0.635,0.596,�쓌,5.5,�L
2021/05/21,01:00,0.614,0.894,0.573,1.099,0.776,0.367,0.636,0.595,�쓌,4.7,�L
2021/05/21,01:10,0.615,0.893,0.575,1.098,0.773,0.368,0.636,0.595,�쓌,5.7,�L
2021/05/21,01:20,0.613,0.895,0.573,1.097,0.775,0.368,0.635,0.595,�쓌,4.8,�L
2021/05/21,01:30,0.613,0.894,0.573,1.099,0.773,0.368,0.636,0.594,���쓌,4.5,�L
2021/05/21,01:40,0.613,0.893,0.574,1.096,0.774,0.367,0.635,0.594,�쓌,5.4,�L
2021/05/21,01:50,0.612,0.892,0.575,1.091,0.774,0.367,0.632,0.595,�쓌,6.3,�L
2021/05/21,02:00,0.613,0.890,0.573,1.094,0.773,0.367,0.634,0.595,��쓌,6.4,�L
2021/05/21,02:10,0.614,0.890,0.573,1.090,0.771,0.368,0.633,0.593,��쓌,5.3,�L
2021/05/21,02:20,0.611,0.889,0.572,1.087,0.772,0.367,0.632,0.594,��쓌,5.3,�L
2021/05/21,02:30,0.609,0.887,0.572,1.087,0.767,0.367,0.630,0.592,��쓌,4.2,�L
2021/05/21,02:40,0.609,0.885,0.572,1.083,0.767,0.367,0.631,0.593,�쓌,3.0,�L
2021/05/21,02:50,0.609,0.885,0.570,1.084,0.768,0.367,0.631,0.592,�쓌,1.9,�L
2021/05/21,03:00,0.611,0.888,0.573,1.085,0.768,0.367,0.632,0.592,��,1.7,�L
2021/05/21,03:10,0.610,0.888,0.570,1.085,0.768,0.367,0.632,0.595,��,3.2,�L
2021/05/21,03:20,0.610,0.887,0.571,1.086,0.767,0.366,0.632,0.593,��,2.6,�L
2021/05/21,03:30,0.611,0.887,0.572,1.084,0.769,0.366,0.631,0.593,��,2.3,�L
2021/05/21,03:40,0.610,0.890,0.572,1.087,0.767,0.365,0.631,0.593,�k��,1.7,�L
2021/05/21,03:50,0.610,0.888,0.571,1.082,0.766,0.365,0.629,0.593,�k�k��,2.2,�L
2021/05/21,04:00,0.608,0.890,0.571,1.082,0.764,0.366,0.631,0.594,�k�k��,2.5,�L
2021/05/21,04:10,0.611,0.890,0.571,1.083,0.765,0.366,0.631,0.594,�k,3.0,�L
2021/05/21,04:20,0.608,0.886,0.570,1.081,0.767,0.365,0.633,0.593,�k,3.2,�L
2021/05/21,04:30,0.609,0.887,0.569,1.083,0.765,0.366,0.633,0.592,�k,3.3,�L
2021/05/21,04:40,0.609,0.889,0.570,1.083,0.765,0.366,0.632,0.593,�k,3.8,�L
2021/05/21,04:50,0.607,0.887,0.569,1.081,0.766,0.364,0.631,0.591,�k,3.1,�L
2021/05/21,05:00,0.608,0.883,0.569,1.080,0.761,0.364,0.629,0.591,�k,3.9,�L
2021/05/21,05:10,0.605,0.880,0.566,1.078,0.761,0.364,0.629,0.591,�k�k��,4.4,�L
2021/05/21,05:20,0.605,0.881,0.566,1.079,0.762,0.364,0.630,0.592,�k�k��,5.7,�L
2021/05/21,05:30,0.606,0.881,0.566,1.077,0.765,0.363,0.629,0.592,�k�k��,5.8,�L
2021/05/21,05:40,0.605,0.882,0.568,1.077,0.762,0.364,0.629,0.591,�k,5.5,�L
2021/05/21,05:50,0.605,0.880,0.566,1.079,0.760,0.364,0.630,0.591,�k�k��,5.5,�L
2021/05/21,06:00,0.606,0.881,0.567,1.080,0.763,0.363,0.629,0.592,�k�k��,6.0,�L
2021/05/21,06:10,0.605,0.880,0.566,1.078,0.760,0.363,0.629,0.591,�k�k��,5.6,�L
2021/05/21,06:20,0.606,0.880,0.565,1.075,0.759,0.364,0.630,0.590,�k�k��,6.1,�L
2021/05/21,06:30,0.605,0.877,0.566,1.076,0.760,0.362,0.628,0.593,�k�k��,6.1,�L
2021/05/21,06:40,0.605,0.879,0.567,1.074,0.761,0.363,0.629,0.592,�k�k��,5.7,�L
2021/05/21,06:50,0.604,0.877,0.565,1.077,0.761,0.363,0.630,0.590,�k�k��,5.7,�L
2021/05/21,07:00,0.604,0.877,0.565,1.075,0.761,0.363,0.629,0.591,�k�k��,4.9,�L
2021/05/21,07:10,0.603,0.874,0.566,1.074,0.759,0.363,0.630,0.590,�k,5.5,�L
2021/05/21,07:20,0.605,0.874,0.565,1.073,0.758,0.363,0.628,0.592,�k,5.7,�L
2021/05/21,07:30,0.605,0.878,0.566,1.073,0.760,0.363,0.628,0.593,�k�k��,6.2,�L
2021/05/21,07:40,0.605,0.876,0.567,1.077,0.760,0.364,0.629,0.593,�k�k��,5.9,�L
2021/05/21,07:50,0.605,0.876,0.566,1.076,0.760,0.364,0.630,0.591,�k�k��,4.8,�L
2021/05/21,08:00,0.605,0.878,0.566,1.075,0.760,0.361,0.630,0.590,�k�k��,5.6,�L
2021/05/21,08:10,0.606,0.878,0.566,1.076,0.760,0.362,0.630,0.593,�k�k��,4.2,�L
2021/05/21,08:20,0.604,0.878,0.568,1.076,0.761,0.363,0.629,0.592,�k�k��,5.2,�L
2021/05/21,08:30,0.604,0.881,0.567,1.079,0.761,0.362,0.628,0.591,�k�k��,5.1,�L
2021/05/21,08:40,0.608,0.879,0.567,1.078,0.762,0.363,0.631,0.593,�k�k��,4.2,�L
2021/05/21,08:50,0.606,0.879,0.565,1.079,0.762,0.363,0.629,0.591,�k�k��,4.9,�L
2021/05/21,09:00,0.607,0.878,0.566,1.079,0.762,0.363,0.631,0.592,�k�k��,6.1,�L
2021/05/21,09:10,0.608,0.881,0.567,1.081,0.763,0.363,0.631,0.592,�k,3.4,�L
2021/05/21,09:20,0.608,0.880,0.564,1.082,0.765,0.361,0.631,0.594,�k�k��,5.6,�L
2021/05/21,09:30,0.607,0.881,0.568,1.084,0.766,0.361,0.631,0.596,�k�k��,6.2,�L
2021/05/21,09:40,0.608,0.881,0.566,1.081,0.765,0.361,0.631,0.595,�k�k��,5.9,�L
2021/05/21,09:50,0.606,0.876,0.568,1.079,0.762,0.364,0.631,0.592,�k�k��,6.5,�L
2021/05/21,10:00,0.605,0.875,0.567,1.078,0.758,0.363,0.629,0.593,�k�k��,2.5,�L
2021/05/21,10:10,0.603,0.874,0.566,1.076,0.760,0.364,0.630,0.592,��,2.6,�L
2021/05/21,10:20,0.605,0.873,0.567,1.077,0.759,0.364,0.630,0.592,��,6.1,�L
2021/05/21,10:30,0.598,0.863,0.562,1.070,0.751,0.363,0.629,0.591,��,7.3,�L
2021/05/21,10:40,0.593,0.853,0.558,1.059,0.746,0.358,0.627,0.590,��,6.9,�L
2021/05/21,10:50,0.593,0.857,0.559,1.058,0.746,0.359,0.626,0.591,��,5.3,�L
2021/05/21,11:00,0.596,0.860,0.560,1.059,0.746,0.359,0.625,0.589,�k,1.2,�L
2021/05/21,11:10,0.593,0.853,0.558,1.055,0.745,0.358,0.625,0.587,�k�k��,3.8,�L
2021/05/21,11:20,0.589,0.851,0.553,1.049,0.738,0.356,0.621,0.586,�k,2.3,�L
2021/05/21,11:30,0.594,0.857,0.558,1.051,0.738,0.358,0.622,0.585,���k��,1.9,�L
2021/05/21,11:40,0.596,0.862,0.558,1.054,0.742,0.357,0.623,0.587,�쓌,1.2,�L
2021/05/21,11:50,0.597,0.861,0.558,1.056,0.739,0.358,0.622,0.587,-,CALM,�L
2021/05/21,12:00,0.593,0.856,0.555,1.051,0.734,0.358,0.621,0.586,��쓌,3.1,�L
2021/05/21,12:10,0.595,0.861,0.558,1.052,0.737,0.358,0.623,0.587,��쓌,1.5,�L
2021/05/21,12:20,0.596,0.861,0.558,1.053,0.738,0.359,0.624,0.588,��,1.4,�L
2021/05/21,12:30,0.598,0.863,0.559,1.056,0.740,0.359,0.623,0.589,�k��,2.0,�L
2021/05/21,12:40,0.600,0.864,0.559,1.059,0.742,0.359,0.624,0.587,�k�k��,2.8,�L
2021/05/21,12:50,0.601,0.867,0.560,1.060,0.742,0.360,0.625,0.589,�k�k��,4.5,�L
2021/05/21,13:00,0.602,0.864,0.560,1.063,0.745,0.360,0.625,0.589,�k,3.5,�L
2021/05/21,13:10,0.602,0.869,0.560,1.066,0.745,0.362,0.626,0.590,�k�k��,2.0,�L
2021/05/21,13:20,0.603,0.869,0.559,1.064,0.748,0.361,0.624,0.591,�k�k��,2.8,�L
2021/05/21,13:30,0.603,0.869,0.560,1.066,0.747,0.363,0.628,0.588,�k�k��,1.7,��
2021/05/21,13:40,0.603,0.870,0.562,1.069,0.748,0.363,0.626,0.591,�k��,2.0,�L
2021/05/21,13:50,0.603,0.873,0.562,1.070,0.748,0.363,0.626,0.591,�k,1.5,�L
2021/05/21,14:00,0.604,0.873,0.561,1.070,0.749,0.363,0.627,0.590,�k,1.4,�L
2021/05/21,14:10,0.603,0.877,0.562,1.069,0.753,0.364,0.627,0.591,�k�k��,0.6,�L
2021/05/21,14:20,0.603,0.874,0.564,1.072,0.752,0.363,0.627,0.590,�k�k��,1.1,�L
2021/05/21,14:30,0.603,0.874,0.564,1.072,0.750,0.364,0.628,0.590,�k�k��,2.6,�L
2021/05/21,14:40,0.603,0.873,0.563,1.073,0.751,0.365,0.626,0.590,�k,2.3,�L
2021/05/21,14:50,0.604,0.875,0.565,1.073,0.750,0.363,0.630,0.590,�k�k��,2.3,�L
2021/05/21,15:00,0.606,0.876,0.564,1.073,0.752,0.363,0.628,0.591,�k,2.5,�L
2021/05/21,15:10,0.604,0.875,0.564,1.073,0.752,0.365,0.628,0.590,�k�k��,2.3,�L
2021/05/21,15:20,0.606,0.875,0.565,1.070,0.752,0.365,0.627,0.592,�k,1.2,�L
2021/05/21,15:30,0.603,0.875,0.564,1.072,0.750,0.364,0.628,0.591,�k,1.7,�L
2021/05/21,15:40,0.604,0.873,0.563,1.074,0.752,0.365,0.627,0.591,�k,2.0,�L
2021/05/21,15:50,0.604,0.876,0.564,1.074,0.752,0.366,0.629,0.592,�k,2.0,�L
2021/05/21,16:00,0.603,0.876,0.565,1.071,0.753,0.365,0.629,0.590,�k,1.5,�L
2021/05/21,16:10,0.607,0.880,0.565,1.075,0.753,0.364,0.630,0.592,�k,0.8,�L
2021/05/21,16:20,0.606,0.879,0.564,1.074,0.753,0.364,0.628,0.591,�k,1.7,�L
2021/05/21,16:30,0.605,0.879,0.566,1.074,0.755,0.364,0.628,0.592,�k,4.1,�L
2021/05/21,16:40,0.606,0.878,0.563,1.075,0.753,0.364,0.630,0.592,�k�k��,2.8,�L
2021/05/21,16:50,0.607,0.877,0.564,1.077,0.753,0.363,0.629,0.592,�k,4.2,�L
2021/05/21,17:00,0.608,0.878,0.564,1.074,0.756,0.363,0.627,0.592,�k,4.5,��
2021/05/21,17:10,0.607,0.878,0.563,1.076,0.755,0.364,0.629,0.591,�k,4.7,�L
2021/05/21,17:20,0.608,0.879,0.563,1.077,0.755,0.364,0.629,0.593,�k,5.3,�L
2021/05/21,17:30,0.607,0.879,0.564,1.074,0.756,0.364,0.629,0.592,�k,5.0,�L
2021/05/21,17:40,0.608,0.877,0.564,1.076,0.755,0.364,0.630,0.591,�k,5.7,��
2021/05/21,17:50,0.608,0.879,0.563,1.075,0.755,0.363,0.631,0.593,�k,5.1,�L
2021/05/21,18:00,0.609,0.879,0.563,1.076,0.756,0.365,0.630,0.594,�k�k��,5.7,�L
2021/05/21,18:10,0.602,0.879,0.565,1.076,0.756,0.365,0.630,0.593,�k,5.0,�L
2021/05/21,18:20,0.603,0.879,0.564,1.077,0.756,0.365,0.630,0.594,�k,4.5,�L
2021/05/21,18:30,0.604,0.879,0.564,1.077,0.759,0.363,0.629,0.594,�k,5.3,�L
2021/05/21,18:40,0.603,0.880,0.564,1.076,0.755,0.366,0.629,0.593,�k,4.6,�L
2021/05/21,18:50,0.601,0.877,0.566,1.076,0.756,0.366,0.629,0.595,-,CALM,�L
2021/05/21,19:00,0.603,0.874,0.565,1.075,0.754,0.367,0.629,0.592,�k�k��,4.9,�L
2021/05/21,19:10,0.599,0.873,0.566,1.072,0.751,0.366,0.627,0.592,�k,4.6,�L
2021/05/21,19:20,0.602,0.872,0.567,1.071,0.753,0.367,0.628,0.590,�k,4.6,�L
2021/05/21,19:30,0.599,0.872,0.566,1.068,0.752,0.366,0.626,0.592,�k,4.8,�L
2021/05/21,19:40,0.600,0.871,0.567,1.070,0.752,0.366,0.628,0.591,�k,5.3,�L
2021/05/21,19:50,0.601,0.869,0.567,1.069,0.751,0.367,0.627,0.592,�k,5.4,�L
2021/05/21,20:00,0.597,0.868,0.564,1.063,0.749,0.365,0.627,0.592,�k�k��,3.1,�L
2021/05/21,20:10,0.597,0.868,0.566,1.064,0.750,0.365,0.627,0.591,�k,2.0,�L
2021/05/21,20:20,0.598,0.868,0.565,1.062,0.746,0.368,0.626,0.591,�k,3.4,�L
2021/05/21,20:30,0.600,0.870,0.567,1.065,0.748,0.368,0.627,0.591,�k,2.6,�L
2021/05/21,20:40,0.600,0.872,0.568,1.063,0.750,0.368,0.626,0.590,�k,2.8,�L
2021/05/21,20:50,0.598,0.874,0.566,1.066,0.752,0.368,0.626,0.589,�k,3.7,�L
2021/05/21,21:00,0.599,0.872,0.568,1.066,0.749,0.367,0.626,0.591,�k,5.7,�L
2021/05/21,21:10,0.600,0.870,0.566,1.065,0.750,0.367,0.626,0.593,�k,5.0,�L
2021/05/21,21:20,0.599,0.870,0.565,1.068,0.750,0.366,0.625,0.591,�k,4.0,�L
2021/05/21,21:30,0.601,0.872,0.565,1.067,0.749,0.366,0.628,0.591,�k,3.4,�L
2021/05/21,21:40,0.600,0.871,0.565,1.066,0.748,0.367,0.625,0.591,�k�k��,4.0,�L
2021/05/21,21:50,0.597,0.871,0.564,1.063,0.749,0.366,0.627,0.591,�k�k��,5.1,�L
2021/05/21,22:00,0.599,0.872,0.563,1.065,0.748,0.365,0.626,0.592,�k,5.4,�L
2021/05/21,22:10,0.598,0.871,0.563,1.067,0.752,0.364,0.627,0.591,�k,4.7,�L
2021/05/21,22:20,0.600,0.871,0.562,1.068,0.751,0.364,0.627,0.592,�k�k��,3.8,�L
2021/05/21,22:30,0.599,0.873,0.562,1.066,0.748,0.365,0.627,0.592,�k,4.9,�L
2021/05/21,22:40,0.600,0.874,0.561,1.068,0.751,0.365,0.627,0.594,�k�k��,4.5,�L
2021/05/21,22:50,0.598,0.872,0.564,1.069,0.752,0.366,0.626,0.591,�k�k��,4.2,�L
2021/05/21,23:00,0.600,0.873,0.565,1.069,0.751,0.366,0.628,0.592,�k�k��,3.5,�L
2021/05/21,23:10,0.600,0.876,0.563,1.069,0.752,0.366,0.628,0.591,�k�k��,4.5,�L
2021/05/21,23:20,0.600,0.873,0.562,1.070,0.752,0.365,0.626,0.592,�k�k��,5.1,�L
2021/05/21,23:30,0.599,0.876,0.563,1.068,0.751,0.366,0.627,0.591,�k,5.6,�L
2021/05/21,23:40,0.599,0.873,0.565,1.068,0.752,0.365,0.627,0.589,�k,5.4,�L
2021/05/21,23:50,0.600,0.874,0.564,1.070,0.750,0.366,0.627,0.589,�k�k��,5.6,�L
